Weather History for KEET - May, 2013

Change the Weather History Date:

Saturday, May 4, 2013

  Actual Average Record
Temperature  
Mean Temperature 53 °F 67 °F  
Max Temperature 62 °F 79 °F 90 °F (1959)
Min Temperature 43 °F 56 °F 32 °F (1971)
Degree Days  
Heating Degree Days 13    
Growing Degree Days 2 (Base 50)    
Moisture  
Dew Point 43 °F    
Average Humidity 74    
Maximum Humidity 100    
Minimum Humidity 48    
Precipitation  
Precipitation 1.01 in 0.15 in 2.00 in (1953)
Month to date precipitation 1.85 0.57  
Year to date precipitation 27.14 20.02  
Sea Level Pressure  
Sea Level Pressure 29.92 in    
Wind  
Wind Speed 6 mph (NW)    
Max Wind Speed 15 mph    
Max Gust Speed 21 mph    
Visibility 6 miles    
Events Rain    
T = Trace of Precipitation, MM = Missing Value Source: NWS Daily Summary

Daily Weather History Graph

Daily Weather History Graph

Search for Another Location

Airport or City:

Trip Planner

Search our weather history database for the weather conditions in past years. The results will help you decide how hot, cold, wet, or windy it might be!

Date:

Astronomy

May. 04, 2013 Rise Set
Actual Time 5:56 AM CDT 7:32 PM CDT
Civil Twilight 5:29 AM CDT 7:58 PM CDT
Nautical Twilight 4:57 AM CDT 8:30 PM CDT
Astronomical Twilight 4:24 AM CDT 9:04 PM CDT
Moon 2:38 AM CDT (5/4) 2:44 PM CDT (5/4)
Length of Visible Light 14h 29m
Length of Day
13h 35m
Waning Crescent, 27% of the Moon is Illuminated
May 4
Waning Crescent
May 9
New
May 17
First Quarter
May 24
Full
May 31
Last Quarter

Hourly Weather History & Observations

Time (CDT) Temp. Windchill Dew Point Humidity Pressure Visibility Wind Dir Wind Speed Gust Speed Precip Events Conditions
12:32 AM 46.4 °F 42.4 °F 44.6 °F 93% 29.92 in 5.0 mi NW 8.1 mph - 0.03 in Rain Light Rain
12:40 AM 46.4 °F 42.4 °F 44.6 °F 93% 29.95 in 7.0 mi SW 8.1 mph 19.6 mph 0.04 in Rain Light Rain
12:53 AM 46.0 °F 39.3 °F 44.1 °F 93% 29.90 in 8.0 mi NNW 16.1 mph 25.3 mph 0.04 in Rain Light Rain
1:53 AM 45.0 °F 41.8 °F 44.1 °F 97% 29.91 in 3.0 mi WNW 5.8 mph - 0.18 in Rain Rain
2:03 AM 44.6 °F 42.2 °F 44.6 °F 100% 29.93 in 2.5 mi WNW 4.6 mph - 0.04 in Rain Heavy Rain
2:21 AM 44.6 °F 43.1 °F 44.6 °F 100% 29.94 in 4.0 mi NNW 3.5 mph - 0.09 in Rain Rain
2:46 AM 44.6 °F 40.7 °F 42.8 °F 93% 29.91 in 6.0 mi NW 6.9 mph - 0.13 in Rain Light Rain
2:53 AM 45.0 °F 40.6 °F 43.0 °F 93% 29.90 in 6.0 mi NW 8.1 mph - 0.14 in Rain Light Rain
3:37 AM 44.6 °F 40.7 °F 42.8 °F 93% 29.89 in 10.0 mi NW 6.9 mph - 0.01 in   Overcast
3:45 AM 44.6 °F 38.8 °F 42.8 °F 93% 29.89 in 10.0 mi WNW 11.5 mph 18.4 mph 0.01 in   Overcast
3:53 AM 45.0 °F 40.1 °F 43.0 °F 93% 29.91 in 9.0 mi West 9.2 mph 18.4 mph 0.01 in Rain Light Rain
4:18 AM 44.6 °F 40.7 °F 42.8 °F 93% 29.90 in 4.0 mi WNW 6.9 mph - 0.07 in Rain Rain
4:25 AM 44.6 °F 40.2 °F 42.8 °F 93% 29.91 in 4.0 mi WNW 8.1 mph - 0.08 in Rain Rain
4:50 AM 44.6 °F 40.7 °F 42.8 °F 93% 29.91 in 2.5 mi WNW 6.9 mph - 0.16 in Rain Heavy Rain
4:53 AM 44.1 °F 38.6 °F 43.0 °F 96% 29.90 in 2.5 mi NW 10.4 mph 16.1 mph 0.17 in Rain Heavy Rain
4:58 AM 44.6 °F 40.2 °F 42.8 °F 93% 29.90 in 3.0 mi NW 8.1 mph 16.1 mph 0.01 in Rain Rain
5:25 AM 44.6 °F 40.2 °F 42.8 °F 93% 29.91 in 8.0 mi WNW 8.1 mph - 0.04 in Rain Light Rain
5:53 AM 44.1 °F 38.6 °F 42.1 °F 93% 29.91 in 7.0 mi WNW 10.4 mph 19.6 mph 0.06 in Rain Light Rain
6:01 AM 44.6 °F 39.7 °F 42.8 °F 93% 29.92 in 5.0 mi NW 9.2 mph 16.1 mph 0.00 in Rain Light Rain
6:14 AM 42.8 °F 36.6 °F 42.8 °F 100% 29.92 in 2.0 mi NW 11.5 mph 16.1 mph 0.04 in Rain Rain
6:29 AM 44.6 °F 39.2 °F 42.8 °F 93% 29.91 in 1.8 mi NW 10.4 mph 16.1 mph 0.10 in Rain Rain
6:36 AM 44.6 °F 39.7 °F 42.8 °F 93% 29.92 in 3.0 mi NW 9.2 mph 19.6 mph 0.10 in Rain Light Rain
6:51 AM 44.6 °F 40.2 °F 42.8 °F 93% 29.93 in 1.8 mi NNW 8.1 mph - 0.13 in Rain Rain
6:52 AM 44.1 °F 40.8 °F 42.1 °F 93% 29.92 in 1.5 mi North 5.8 mph - 0.13 in Rain Rain
7:00 AM 44.6 °F 40.7 °F 42.8 °F 93% 29.93 in 1.2 mi North 6.9 mph - 0.03 in Rain Rain
7:36 AM 44.6 °F 42.2 °F 42.8 °F 93% 29.94 in 1.2 mi Variable 4.6 mph - 0.14 in Rain Heavy Rain
7:53 AM 44.1 °F 39.5 °F 42.1 °F 93% 29.94 in 1.5 mi North 8.1 mph - 0.21 in Rain Rain
8:12 AM 44.6 °F 40.2 °F 42.8 °F 93% 29.95 in 2.0 mi NNW 8.1 mph 16.1 mph 0.05 in Rain Rain
8:33 AM 44.6 °F 40.2 °F 41.0 °F 87% 29.95 in 3.0 mi NNW 8.1 mph - 0.09 in Rain Rain
8:40 AM 44.6 °F 40.2 °F 41.0 °F 87% 29.94 in 2.0 mi NNW 8.1 mph 16.1 mph 0.10 in Rain Rain
8:49 AM 44.6 °F 40.2 °F 41.0 °F 87% 29.95 in 8.0 mi North 8.1 mph 17.3 mph 0.11 in Rain Light Rain
8:53 AM 44.1 °F 39.5 °F 41.0 °F 89% 29.95 in 10.0 mi NNW 8.1 mph - 0.11 in Rain Light Rain
9:53 AM 46.0 °F 40.6 °F 42.1 °F 86% 29.96 in 10.0 mi NNW 11.5 mph 17.3 mph N/A   Overcast
10:53 AM 48.9 °F - 41.0 °F 74% 29.98 in 10.0 mi North 10.4 mph 17.3 mph N/A   Overcast
11:53 AM 52.0 °F - 39.9 °F 63% 29.96 in 10.0 mi NNW 12.7 mph 17.3 mph N/A   Overcast
12:53 PM 54.0 °F - 41.0 °F 62% 29.95 in 10.0 mi North 11.5 mph - N/A   Overcast
1:53 PM 57.9 °F - 44.1 °F 60% 29.93 in 10.0 mi Variable 4.6 mph - N/A   Clear
2:53 PM 59.0 °F - 45.0 °F 60% 29.91 in 10.0 mi Variable 5.8 mph - N/A   Partly Cloudy
3:53 PM 61.0 °F - 44.1 °F 54% 29.90 in 10.0 mi North 6.9 mph - N/A   Clear
4:53 PM 62.1 °F - 43.0 °F 50% 29.88 in 10.0 mi North 6.9 mph - N/A   Clear
5:53 PM 61.0 °F - 43.0 °F 52% 29.89 in 10.0 mi Variable 4.6 mph - N/A   Clear
6:53 PM 60.1 °F - 43.0 °F 53% 29.90 in 10.0 mi North 4.6 mph - N/A   Clear
7:53 PM 53.1 °F - 45.0 °F 74% 29.91 in 10.0 mi Variable 3.5 mph - N/A   Clear
8:53 PM 51.1 °F - 45.0 °F 80% 29.94 in 10.0 mi Calm Calm - N/A   Clear
9:53 PM 48.9 °F - 44.1 °F 83% 29.93 in 10.0 mi Calm Calm - N/A   Clear
10:53 PM 48.0 °F - 44.1 °F 86% 29.92 in 10.0 mi Calm Calm - N/A   Clear
11:53 PM 48.0 °F - 45.0 °F 89% 29.91 in 10.0 mi Calm Calm - N/A   Clear